446  
ASUS43 KGLD 200208  
RWRGLD  
 
GOODLAND FORECAST AREA HOURLY WEATHER ROUNDUP  
NATIONAL WEATHER SERVICE GOODLAND KS  
800 PM MDT FRI OCT 19 2018  
   
..OFFICIAL OBSERVATIONS
 
 
 
CITY SKY/WX TMP DP RH WIND PRES REMARKS
 
GOODLAND KS CLEAR 42 32 67 NW7 30.31R  
HILL CITY KS CLEAR 49 37 63 N12 30.25R  
IMPERIAL NEB CLEAR 47 26 44 NW5 30.30R  
MCCOOK NEB CLEAR 48 32 53 N12 30.27R  
AKRON CO N/A 51 28 41 E5 30.34R  
BURLINGTON CO CLEAR 46 28 49 N3 30.34R  
LIMON CO CLEAR 36 27 69 N5 30.38R  

 
   
..UNOFFICIAL OBSERVATIONS
 
 
 
CITY SKY/WX TMP DP RH WIND PRES REMARKS
 
COLBY KS CLEAR 45 32 61 N7 30.30R  
SHARON SPRINGS N/A 49 29 45 N5 N/A  
KIT CARSON CO N/A 47 33 57 MISG N/A  
YUMA CO FAIR 37 28 70 CALM 30.33R  

 
 
 
CLICK HERE TO GO TO PREVIOUS BULLETINS.

The Nexlab KS Page
The Nexlab CO Page
The Nexlab NE Page Main Text Page